EW2464 Weather Reports


Display with metric or nautical units.
time (UTC)temp
F
wind
direction
speed
MPH
gust
MPH
rain 1hr
in
rain 24hr
in
rain mn
in
humidity
%
barometer
mb
20210731183508 73 265 1.0 9.0 0.00 0.00 0.00 47 1013.8
20210731183057 73 293 4.0 9.0 0.00 0.00 0.00 45 1013.9
20210731182506 74 311 1.0 9.0 0.00 0.00 0.00 47 1013.8
20210731182011 74 238 0.0 7.0 0.00 0.00 0.00 46 1013.7
20210731181514 73 191 2.0 10.0 0.00 0.00 0.00 47 1013.9
20210731181007 73 282 3.0 10.0 0.00 0.00 0.00 47 1013.8
20210731180516 72 174 1.0 9.0 0.00 0.00 0.00 47 1013.9
20210731180006 72 15 3.0 9.0 0.00 0.00 0.00 46 1013.9
20210731175508 72 275 1.0 6.0 0.00 0.00 0.00 47 1013.9
20210731175004 73 273 0.0 6.0 0.00 0.00 0.00 49 1013.9
20210731174546 72 336 0.0 5.0 0.00 0.00 0.00 51 1014.0
20210731174004 72 335 1.0 8.0 0.00 0.00 0.00 51 1014.0
20210731173503 73 319 2.0 8.0 0.00 0.00 0.00 51 1014.0
20210731173004 72 305 0.0 8.0 0.00 0.00 0.00 49 1014.1
20210731172506 71 348 2.0 9.0 0.00 0.00 0.00 51 1014.2
20210731172003 73 302 0.0 9.0 0.00 0.00 0.00 49 1014.3
20210731171516 72 255 0.0 3.0 0.00 0.00 0.00 50 1014.3
20210731171005 72 305 0.0 11.0 0.00 0.00 0.00 50 1014.4
20210731170502 71 303 3.0 11.0 0.00 0.00 0.00 50 1014.5
20210731170001 71 305 1.0 6.0 0.00 0.00 0.00 52 1014.5
20210731165503 70 348 0.0 5.0 0.00 0.00 0.00 48 1014.5
20210731165100 72 347 1.0 5.0 0.00 0.00 0.00 49 1014.6
20210731164706 72 296 1.0 5.0 0.00 0.00 0.00 52 1014.6
20210731164057 71 286 1.0 8.0 0.00 0.00 0.00 53 1014.7
20210731163556 71 312 4.0 8.0 0.00 0.00 0.00 49 1014.7
20210731163527 71 289 3.0 8.0 0.00 0.00 0.00 52 1014.7
20210731163129 70 286 2.0 7.0 0.00 0.00 0.00 51 1014.7
20210731162555 71 265 1.0 6.0 0.00 0.00 0.00 52 1014.7
20210731162056 71 327 0.0 7.0 0.00 0.00 0.00 52 1014.8
20210731161624 71 263 1.0 6.0 0.00 0.00 0.00 49 1014.9
20210731161119 71 326 1.0 7.0 0.00 0.00 0.00 52 1014.9
20210731160554 70 325 1.0 7.0 0.00 0.00 0.00 55 1014.9
20210731160135 70 312 1.0 4.0 0.00 0.00 0.00 51 1014.9
20210731155614 71 325 0.0 4.0 0.00 0.00 0.00 52 1014.8
20210731155052 70 325 1.0 4.0 0.00 0.00 0.00 53 1014.9
20210731154701 70 67 0.0 4.0 0.00 0.00 0.00 54 1014.8
20210731154049 70 27 0.0 4.0 0.00 0.00 0.00 56 1014.9
20210731153556 70 329 1.0 5.0 0.00 0.00 0.00 53 1014.9
20210731153052 69 286 0.0 9.0 0.00 0.00 0.00 54 1014.9
20210731152603 68 328 0.0 9.0 0.00 0.00 0.00 54 1014.9
20210731152048 68 283 4.0 9.0 0.00 0.00 0.00 53 1015.0
20210731151600 68 281 2.0 12.0 0.00 0.00 0.00 57 1015.1
20210731151119 68 284 2.0 12.0 0.00 0.00 0.00 53 1015.0
20210731150109 68 290 5.0 8.0 0.00 0.00 0.00 57 1015.1
20210731145608 69 281 1.0 4.0 0.00 0.00 0.00 57 1015.1
20210731145050 69 67 0.0 3.0 0.00 0.00 0.00 56 1015.1
20210731144727 68 96 0.0 3.0 0.00 0.00 0.00 58 1015.1
20210731144046 68 345 0.0 3.0 0.00 0.00 0.00 55 1015.1
20210731143544 68 350 0.0 5.0 0.00 0.00 0.00 56 1015.1
20210731143156 68 304 0.0 3.0 0.00 0.00 0.00 58 1015.2
20210731142546 68 340 0.0 4.0 0.00 0.00 0.00 57 1015.2
20210731142041 67 340 0.0 5.0 0.00 0.00 0.00 59 1015.2
20210731141639 67 162 1.0 7.0 0.00 0.00 0.00 60 1015.2
20210731141039 66 349 1.0 7.0 0.00 0.00 0.00 57 1015.2
20210731140539 66 279 2.0 7.0 0.00 0.00 0.00 57 1015.2
20210731140111 65 355 1.0 5.0 0.00 0.00 0.00 59 1015.0
20210731135604 66 309 2.0 4.0 0.00 0.00 0.00 59 1015.1
20210731135036 66 289 1.0 4.0 0.00 0.00 0.00 60 1015.0
20210731134605 65 9 0.0 4.0 0.00 0.00 0.00 58 1015.0
20210731134038 65 342 0.0 7.0 0.00 0.00 0.00 61 1015.1
20210731133536 65 295 2.0 6.0 0.00 0.00 0.00 60 1015.2
20210731133114 65 292 2.0 5.0 0.00 0.00 0.00 60 1015.3
20210731132534 65 345 0.0 4.0 0.00 0.00 0.00 61 1015.3
20210731132057 65 346 0.0 5.0 0.00 0.00 0.00 61 1015.1
20210731131600 64 323 0.0 4.0 0.00 0.00 0.00 63 1015.2
20210731131035 64 302 1.0 6.0 0.00 0.00 0.00 63 1015.2
20210731130529 63 288 2.0 8.0 0.00 0.00 0.00 65 1015.1
20210731130058 63 296 3.0 9.0 0.00 0.00 0.00 64 1015.2
20210731125534 63 317 3.0 12.0 0.00 0.00 0.00 65 1015.2
20210731125042 63 269 2.0 5.0 0.00 0.00 0.00 68 1015.2
20210731124527 63 298 0.0 7.0 0.00 0.00 0.00 70 1015.2
20210731124024 62 269 1.0 7.0 0.00 0.00 0.00 69 1015.2
20210731123523 62 245 0.0 4.0 0.00 0.00 0.00 73 1015.2
20210731123058 61 245 0.0 3.0 0.00 0.00 0.00 73 1015.2
20210731122531 61 261 0.0 7.0 0.00 0.00 0.00 73 1015.2
20210731122026 61 246 0.0 5.0 0.00 0.00 0.00 74 1015.2
20210731121546 60 292 0.0 5.0 0.00 0.00 0.00 75 1015.2
20210731121021 60 286 0.0 3.0 0.00 0.00 0.00 73 1015.3
20210731120536 60 286 0.0 3.0 0.00 0.00 0.00 77 1015.3
20210731120053 60 286 0.0 3.0 0.00 0.00 0.00 78 1015.2
20210731115519 59 286 0.0 3.0 0.00 0.00 0.00 80 1015.1
20210731115019 59 286 0.0 0.0 0.00 0.00 0.00 83 1015.0
20210731114538 59 286 0.0 0.0 0.00 0.00 0.00 86 1015.0
20210731114024 57 286 0.0 0.0 0.00 0.00 0.00 90 1015.1
20210731113518 56 286 0.0 0.0 0.00 0.00 0.00 92 1015.0
20210731113018 56 286 0.0 0.0 0.00 0.00 0.00 93 1015.0
20210731112523 55 286 0.0 0.0 0.00 0.00 0.00 94 1014.9
20210731112035 54 286 0.0 0.0 0.00 0.00 0.00 94 1014.9
20210731111524 54 286 0.0 0.0 0.00 0.00 0.00 95 1014.9
20210731111037 53 286 0.0 0.0 0.00 0.00 0.00 95 1015.0
20210731110523 52 286 0.0 1.0 0.00 0.00 0.00 95 1015.0
20210731110032 52 286 0.0 1.0 0.00 0.00 0.00 95 1014.9
20210731105515 52 286 0.0 1.0 0.00 0.00 0.00 95 1014.7
20210731105023 51 286 0.0 1.0 0.00 0.00 0.00 95 1014.8
20210731104522 51 286 0.0 1.0 0.00 0.00 0.00 95 1014.7
20210731104022 50 286 0.0 1.0 0.00 0.00 0.00 95 1014.8
20210731103523 50 286 0.0 0.0 0.00 0.00 0.00 95 1014.7
20210731103016 50 286 0.0 1.0 0.00 0.00 0.00 95 1014.7
20210731102513 50 286 0.0 1.0 0.00 0.00 0.00 95 1014.7
20210731101537 50 286 0.0 1.0 0.00 0.00 0.00 95 1014.7
20210731101012 50 286 0.0 1.0 0.00 0.00 0.00 95 1014.6
20210731100518 49 286 0.0 1.0 0.00 0.00 0.00 95 1014.6
20210731100011 49 286 0.0 0.0 0.00 0.00 0.00 95 1014.5
20210731095518 49 286 0.0 0.0 0.00 0.00 0.00 94 1014.4
20210731095009 50 286 0.0 0.0 0.00 0.00 0.00 94 1014.4
20210731094513 50 286 0.0 0.0 0.00 0.00 0.00 94 1014.4
20210731094009 50 286 0.0 0.0 0.00 0.00 0.00 94 1014.4
20210731093508 50 286 0.0 0.0 0.00 0.00 0.00 94 1014.5
20210731093007 50 286 0.0 0.0 0.00 0.00 0.00 94 1014.5
20210731092511 50 286 0.0 0.0 0.00 0.00 0.00 94 1014.4
20210731092007 50 286 0.0 0.0 0.00 0.00 0.00 94 1014.4
20210731091509 50 286 0.0 0.0 0.00 0.00 0.00 94 1014.2
20210731091006 50 286 0.0 1.0 0.00 0.00 0.00 94 1014.1
20210731090507 50 286 0.0 1.0 0.00 0.00 0.00 94 1014.1
20210731090022 50 286 0.0 0.0 0.00 0.00 0.00 94 1014.0
20210731085508 50 286 0.0 0.0 0.00 0.00 0.00 93 1013.9
20210731085008 50 286 0.0 0.0 0.00 0.00 0.00 94 1014.0
20210731084505 50 286 0.0 0.0 0.00 0.00 0.00 93 1014.0
20210731084007 50 286 0.0 0.0 0.00 0.00 0.00 93 1014.0
20210731083535 51 286 0.0 0.0 0.00 0.00 0.00 93 1014.1
20210731083030 51 286 0.0 0.0 0.00 0.00 0.00 93 1014.1
20210731082503 51 286 0.0 0.0 0.00 0.00 0.00 93 1014.0
20210731082005 51 286 0.0 1.0 0.00 0.00 0.00 92 1013.9
20210731081502 51 286 0.0 1.0 0.00 0.00 0.00 92 1013.8
20210731081001 51 286 0.0 0.0 0.00 0.00 0.00 92 1013.9
20210731080503 51 286 0.0 1.0 0.00 0.00 0.00 92 1013.9
20210731080240 52 286 0.0 1.0 0.00 0.00 0.00 91 1013.9
20210731075559 52 286 0.0 0.0 0.00 0.00 0.00 91 1013.9
20210731075058 52 286 0.0 0.0 0.00 0.00 0.00 91 1014.0
20210731074625 52 286 0.0 0.0 0.00 0.00 0.00 91 1014.1
20210731074124 52 286 0.0 0.0 0.00 0.00 0.00 91 1014.1
20210731073556 52 286 0.0 1.0 0.00 0.00 0.00 90 1014.2
20210731073256 53 287 0.0 1.0 0.00 0.00 0.00 90 1014.2
20210731072554 53 286 0.0 0.0 0.00 0.00 0.00 89 1014.1
20210731072053 53 287 0.0 0.0 0.00 0.00 0.00 89 1014.2
20210731071711 53 286 0.0 1.0 0.00 0.00 0.00 89 1014.2
20210731071100 54 287 0.0 1.0 0.00 0.00 0.00 88 1014.2
20210731070551 54 287 0.0 1.0 0.00 0.00 0.00 88 1014.3
20210731070209 54 287 0.0 0.0 0.00 0.00 0.00 88 1014.3
20210731065550 54 287 0.0 0.0 0.00 0.00 0.00 88 1014.1
20210731065049 54 287 0.0 0.0 0.00 0.00 0.00 87 1014.1
20210731064623 54 287 0.0 0.0 0.00 0.00 0.00 87 1014.1
20210731064048 55 287 0.0 0.0 0.00 0.00 0.00 86 1014.1
20210731063549 55 287 0.0 0.0 0.00 0.00 0.00 85 1013.9
20210731063119 56 287 0.0 0.0 0.00 0.00 0.00 84 1013.9
20210731062545 56 287 0.0 1.0 0.00 0.00 0.00 83 1014.0
20210731062058 56 287 0.0 3.0 0.00 0.00 0.00 83 1014.0
20210731061557 56 287 0.0 3.0 0.00 0.00 0.00 83 1014.0
20210731061043 56 286 0.0 1.0 0.00 0.00 0.00 83 1014.1
20210731060628 56 286 0.0 1.0 0.00 0.00 0.00 83 1014.1
20210731060115 56 286 0.0 0.0 0.00 0.00 0.00 82 1014.2
20210731055539 57 286 0.0 0.0 0.00 0.00 0.00 81 1014.1
20210731055043 58 286 0.0 1.0 0.00 0.00 0.00 80 1014.1
20210731054608 58 286 0.0 1.0 0.00 0.00 0.00 79 1014.1
20210731054036 58 287 0.0 1.0 0.00 0.00 0.00 77 1014.1
20210731053545 59 287 0.0 2.0 0.00 0.00 0.00 76 1014.0
20210731053118 59 287 0.0 4.0 0.00 0.00 0.00 74 1014.0
20210731052540 59 287 1.0 5.0 0.00 0.00 0.00 75 1013.9
20210731052043 59 301 1.0 4.0 0.00 0.00 0.00 76 1014.0
20210731051614 59 301 0.0 2.0 0.00 0.00 0.00 76 1014.1
20210731051042 58 301 0.0 4.0 0.00 0.00 0.00 76 1014.2
20210731050532 59 301 0.0 4.0 0.00 0.00 0.00 76 1014.1
20210731050052 59 302 0.0 1.0 0.00 0.00 0.00 75 1014.2
20210731045535 59 302 0.0 1.0 0.00 0.00 0.00 75 1014.2
20210731045035 60 302 0.0 1.0 0.00 0.00 0.00 74 1014.4
20210731044623 60 302 0.0 4.0 0.00 0.00 0.00 73 1014.4
20210731044034 60 302 1.0 8.0 0.00 0.00 0.00 73 1014.3
20210731043536 60 300 2.0 8.0 0.00 0.00 0.00 73 1014.2
20210731043056 60 297 2.0 5.0 0.00 0.00 0.00 73 1014.1
20210731042526 60 311 0.0 5.0 0.00 0.00 0.00 73 1014.2
20210731042025 60 311 0.0 4.0 0.00 0.00 0.00 72 1014.1
20210731041641 60 280 0.0 3.0 0.00 0.00 0.00 72 1014.1
20210731041040 61 280 0.0 3.0 0.00 0.00 0.00 72 1014.0
20210731040526 61 280 0.0 3.0 0.00 0.00 0.00 72 1014.0
20210731040123 61 280 0.0 4.0 0.00 0.00 0.00 72 1013.9
20210731035519 61 280 1.0 4.0 0.00 0.00 0.00 72 1013.8
20210731035020 61 307 0.0 4.0 0.00 0.01 0.00 72 1013.9
20210731034546 61 282 0.0 1.0 0.00 0.01 0.00 71 1013.8
20210731034021 61 282 0.0 1.0 0.00 0.01 0.00 71 1013.6
20210731033517 62 283 0.0 4.0 0.00 0.01 0.00 71 1013.6
20210731033040 62 283 0.0 4.0 0.00 0.01 0.00 70 1013.6
20210731032516 62 279 0.0 3.0 0.00 0.01 0.00 70 1013.6
20210731032018 62 331 0.0 4.0 0.00 0.01 0.00 70 1013.7
20210731031544 62 349 1.0 5.0 0.00 0.01 0.00 69 1013.9
20210731031031 63 340 1.0 8.0 0.00 0.01 0.00 69 1013.9
20210731030515 63 323 0.0 11.0 0.00 0.01 0.00 69 1013.9
20210731030111 63 298 2.0 11.0 0.00 0.01 0.00 69 1013.8
20210731025520 63 293 0.0 5.0 0.00 0.01 0.00 69 1013.7
20210731025018 63 293 1.0 5.0 0.00 0.01 0.00 68 1013.6
20210731024515 63 312 0.0 3.0 0.00 0.01 0.00 68 1013.5
20210731024013 63 312 0.0 2.0 0.00 0.01 0.00 67 1013.4
20210731023518 64 312 0.0 2.0 0.00 0.01 0.00 67 1013.4
20210731023014 64 312 0.0 2.0 0.00 0.01 0.00 66 1013.4
20210731022516 64 312 0.0 4.0 0.00 0.01 0.00 65 1013.4
20210731022009 65 312 0.0 4.0 0.00 0.01 0.00 64 1013.3
20210731021518 65 304 0.0 4.0 0.00 0.01 0.00 64 1013.3
20210731021008 65 234 0.0 6.0 0.00 0.01 0.00 64 1013.2
20210731020507 65 302 1.0 3.0 0.00 0.01 0.00 64 1013.1
20210731020013 65 285 0.0 7.0 0.00 0.01 0.00 64 1013.1
20210731015511 65 286 1.0 8.0 0.00 0.01 0.00 63 1013.0
20210731015004 66 321 4.0 9.0 0.00 0.06 0.00 63 1012.8
20210731014523 66 303 4.0 9.0 0.00 0.06 0.00 63 1012.8
20210731014007 66 304 3.0 9.0 0.00 0.06 0.00 63 1012.7
20210731013503 66 288 0.0 7.0 0.00 0.06 0.00 63 1012.6
20210731013002 66 288 1.0 7.0 0.00 0.06 0.00 63 1012.5
20210731012134 66 302 2.0 8.0 0.00 0.06 0.00 63 1012.3
20210731011649 66 311 1.0 7.0 0.00 0.06 0.00 63 1012.2
20210731011059 66 292 0.0 4.0 0.00 0.06 0.00 63 1012.1
20210731010558 67 309 0.0 8.0 0.00 0.06 0.00 62 1011.9
20210731010319 67 310 2.0 8.0 0.00 0.06 0.00 62 1011.7
20210731005556 67 296 0.0 6.0 0.00 0.06 0.00 61 1011.6
20210731005055 67 278 1.0 9.0 0.00 0.06 0.00 61 1011.6
20210731004642 68 290 0.0 4.0 0.00 0.06 0.00 60 1011.5
20210731003553 68 293 2.0 10.0 0.00 0.06 0.00 59 1011.4
20210731003202 68 339 2.0 10.0 0.00 0.06 0.00 59 1011.3
20210731002552 68 309 3.0 5.0 0.00 0.06 0.00 59 1011.4
20210731002112 69 300 1.0 5.0 0.00 0.06 0.00 59 1011.2
20210731001658 69 300 1.0 6.0 0.00 0.06 0.00 58 1011.2
20210731001126 69 282 1.0 5.0 0.00 0.06 0.00 58 1011.1
20210731000549 69 306 1.0 7.0 0.00 0.06 0.00 58 1011.0
20210731000131 70 284 2.0 7.0 0.00 0.06 0.00 57 1010.9
20210730235553 70 313 3.0 7.0 0.00 0.06 0.00 58 1010.8
20210730235058 70 295 1.0 4.0 0.00 0.06 0.00 57 1010.7
20210730234626 70 295 1.0 3.0 0.00 0.06 0.00 57 1010.7
20210730234047 71 299 0.0 3.0 0.00 0.06 0.00 57 1010.7
20210730233545 71 335 0.0 3.0 0.00 0.06 0.00 56 1010.5
20210730233125 71 335 0.0 5.0 0.00 0.06 0.00 55 1010.4
20210730232551 71 324 0.0 2.0 0.00 0.06 0.00 55 1010.4
20210730232048 71 327 0.0 7.0 0.00 0.06 0.00 54 1010.3
20210730231609 71 327 1.0 7.0 0.00 0.06 0.00 53 1010.3
20210730231117 71 291 1.0 9.0 0.00 0.06 0.00 54 1010.2
20210730230607 71 302 3.0 9.0 0.00 0.06 0.00 54 1010.0
20210730230059 72 271 1.0 3.0 0.00 0.06 0.00 53 1009.9
20210730225541 72 281 0.0 3.0 0.00 0.06 0.00 53 1009.9
20210730225040 73 281 0.0 9.0 0.00 0.06 0.00 51 1009.8
20210730224604 73 281 2.0 9.0 0.00 0.06 0.00 50 1009.8
20210730224041 74 298 2.0 9.0 0.00 0.06 0.00 49 1009.8
20210730223538 74 288 3.0 9.0 0.00 0.06 0.00 50 1009.8
20210730223041 74 279 2.0 12.0 0.00 0.06 0.00 49 1009.6
20210730222549 74 355 3.0 10.0 0.00 0.06 0.00 48 1009.6
20210730222044 75 16 3.0 10.0 0.00 0.06 0.00 49 1009.5
20210730221757 75 338 0.0 7.0 0.00 0.06 0.00 49 1009.4
20210730221036 75 348 2.0 8.0 0.00 0.06 0.00 49 1009.4
20210730220535 75 292 1.0 8.0 0.00 0.06 0.00 48 1009.3
20210730220147 75 326 1.0 9.0 0.00 0.06 0.00 46 1009.3
20210730215537 75 295 4.0 15.0 0.00 0.06 0.00 46 1009.2
20210730215037 75 350 6.0 15.0 0.00 0.07 0.00 45 1009.2
20210730214600 76 323 3.0 16.0 0.00 0.07 0.00 46 1009.1
20210730214033 76 302 6.0 16.0 0.00 0.07 0.00 46 1008.9
20210730213535 76 306 4.0 15.0 0.00 0.07 0.00 46 1008.9
20210730213039 76 275 6.0 15.0 0.00 0.07 0.00 46 1008.9
20210730212542 76 327 2.0 11.0 0.00 0.07 0.00 46 1008.9
20210730212035 77 302 5.0 11.0 0.00 0.07 0.00 45 1008.8
20210730211544 76 309 3.0 11.0 0.00 0.07 0.00 46 1008.7
20210730211029 76 355 3.0 10.0 0.00 0.07 0.00 45 1008.7
20210730210529 76 295 3.0 13.0 0.00 0.07 0.00 46 1008.6
20210730210043 76 294 5.0 13.0 0.00 0.07 0.00 44 1008.6
20210730205533 76 324 4.0 10.0 0.00 0.07 0.00 44 1008.6
20210730205028 76 342 4.0 11.0 0.00 0.15 0.00 44 1008.6
20210730204027 76 302 5.0 17.0 0.00 0.15 0.00 43 1008.5
20210730203527 76 272 7.0 17.0 0.00 0.15 0.00 42 1008.4
20210730203054 77 333 6.0 18.0 0.00 0.15 0.00 42 1008.5
20210730202545 77 315 3.0 19.0 0.00 0.15 0.00 45 1008.4
20210730202031 77 302 11.0 19.0 0.00 0.15 0.00 44 1008.3
20210730201542 78 275 2.0 12.0 0.00 0.15 0.00 46 1008.3
20210730201023 77 313 2.0 14.0 0.00 0.15 0.00 46 1008.4
20210730200532 77 287 3.0 14.0 0.00 0.15 0.00 47 1008.4
20210730200036 78 271 2.0 9.0 0.00 0.15 0.00 49 1008.4
20210730195535 78 319 2.0 16.0 0.00 0.15 0.00 48 1008.3
20210730195029 78 302 5.0 16.0 0.00 0.18 0.00 45 1008.2
20210730194535 78 302 3.0 17.0 0.00 0.18 0.00 48 1008.2
20210730194021 78 334 6.0 17.0 0.00 0.18 0.00 45 1008.1
20210730193521 78 339 5.0 17.0 0.00 0.18 0.00 46 1008.0
20210730193028 78 276 6.0 17.0 0.00 0.18 0.00 46 1007.9
20210730192520 79 315 5.0 17.0 0.00 0.18 0.00 46 1007.9
20210730192019 79 336 8.0 17.0 0.00 0.18 0.00 45 1007.8
20210730191541 78 268 4.0 14.0 0.00 0.18 0.00 47 1007.8
20210730191019 78 355 4.0 14.0 0.00 0.18 0.00 47 1007.9
20210730190552 78 330 5.0 13.0 0.00 0.18 0.00 45 1007.9
20210730190038 79 267 5.0 15.0 0.00 0.18 0.00 49 1007.9
20210730185518 78 288 6.0 15.0 0.00 0.18 0.00 49 1007.8
20210730185018 78 346 4.0 13.0 0.00 0.18 0.00 50 1007.9
20210730184536 78 336 5.0 21.0 0.00 0.18 0.00 48 1007.9
20210730184028 78 292 6.0 21.0 0.00 0.18 0.00 47 1007.8